This is the latest recevied weather packets stored in our database for station/object AD0YN. If no packets are shown the sender has not sent any weather packets the latest 10 day(s).
| Time | Temp. | Humidity | Pressure | Rain* | Wind** | Luminosity | Snow |
|---|---|---|---|---|---|---|---|
| 1778056342 | 8.89° C | 62% | 1013.6 hPa | 0 mm | - | 0 W/m² | - |
| 1778056039 | 8.89° C | 63% | 1013.6 hPa | 0 mm | - | 0 W/m² | - |
| 1778055735 | 8.89° C | 65% | 1013.4 hPa | 0 mm | - | 0 W/m² | - |
| 1778055433 | 8.89° C | 65% | 1013.5 hPa | 0 mm | - | 0 W/m² | - |
| 1778055130 | 8.89° C | 66% | 1013.4 hPa | 0 mm | - | 0 W/m² | - |
| 1778054828 | 8.89° C | 63% | 1013.4 hPa | 0 mm | - | 0 W/m² | - |
| 1778054524 | 9.44° C | 62% | 1013.4 hPa | 0 mm | - | 0 W/m² | - |
| 1778054222 | 9.44° C | 59% | 1013.5 hPa | 0 mm | - | 0 W/m² | - |
| 1778053918 | 9.44° C | 59% | 1013.3 hPa | 0 mm | - | 0 W/m² | - |
| 1778053616 | 9.44° C | 58% | 1013.7 hPa | 0 mm | - | 0 W/m² | - |
| 1778053313 | 9.44° C | 60% | 1013.8 hPa | 0 mm | - | 0 W/m² | - |
| 1778053011 | 9.44° C | 58% | 1013.6 hPa | 0 mm | - | 0 W/m² | - |
| 1778052708 | 9.44° C | 58% | 1013.8 hPa | 0 mm | - | 0 W/m² | - |
| 1778052404 | 9.44° C | 58% | 1013.6 hPa | 0 mm | - | 0 W/m² | - |
| 1778052103 | 10° C | 58% | 1013.5 hPa | 0 mm | - | 0 W/m² | - |
| 1778051800 | 10° C | 57% | 1013.5 hPa | 0 mm | - | 0 W/m² | - |
| 1778051497 | 10° C | 57% | 1013.3 hPa | 0 mm | - | 0 W/m² | - |
| 1778051194 | 10° C | 56% | 1013.2 hPa | 0 mm | - | 0 W/m² | - |
| 1778050891 | 9.44° C | 58% | 1013.3 hPa | 0 mm | - | 0 W/m² | - |
| 1778050590 | 10° C | 59% | 1013.3 hPa | 0 mm | - | 0 W/m² | - |
| 1778050286 | 10° C | 59% | 1013.5 hPa | 0 mm | - | 0 W/m² | - |
| 1778049983 | 10° C | 57% | 1013.5 hPa | 0 mm | - | 0 W/m² | - |
| 1778049678 | 10° C | 57% | 1013.6 hPa | 0 mm | - | 0 W/m² | - |
| 1778049376 | 10° C | 58% | 1013.8 hPa | 0 mm | - | 0 W/m² | - |
| 1778049073 | 10° C | 60% | 1013.7 hPa | 0 mm | - | 0 W/m² | - |
* Rain latest hour (hover to see other rain measurements)
** Current wind speed in m/s (hover to see current wind gust speed)